This demonstration page uses our WeatherBlox Daily Observations layout. Learn more.

Left ArrowRight Arrow

39.12711, -84.51439

Hourly Observations for March 21, 2021

Temp ( °F °C ) Dew Point ( °F °C ) Humidity (%) Winds ( mph kmh ) Pressure ( in mb ) Visibility ( mi km ) Precip ( " mm )
12:53 am 00:53 Clear 35 1.7 30 -1.1 82 82 Calm 30.43 1031 10 16.0934 0 0
1:53 am 01:53 Clear 34 1.1 31 -0.6 89 89 Calm 30.42 1030 10 16.0934 0 0
2:53 am 02:53 Clear 30 -1.1 28 -2.2 92 92 Calm 30.42 1030 10 16.0934 0 0
3:53 am 03:53 Clear 31 -0.6 28 -2.2 89 89 Calm 30.41 1030 10 16.0934 0 0
4:53 am 04:53 Clear 30 -1.1 28 -2.2 92 92 ENE 3 6 30.41 1030 10 16.0934 0 0
5:53 am 05:53 Clear 29 -1.7 27 -2.8 92 92 Calm 30.42 1030 10 16.0934 0 0
6:53 am 06:53 Clear 28 -2.2 26 -3.3 92 92 Calm 30.42 1030 10 16.0934 0 0
7:53 am 07:53 Sunny 28 -2.2 27 -2.8 96 96 Calm 30.44 1031 9 14.48406 0 0
8:53 am 08:53 Sunny 33 0.6 31 -0.6 92 92 Calm 30.45 1031 10 16.0934 0 0
9:53 am 09:53 Sunny 40 4.4 34 1.1 79 79 Calm 30.45 1031 10 16.0934 0 0
10:53 am 10:53 Sunny 50 10 30 -1.1 46 46 Calm 30.45 1031 10 16.0934 0 0
11:53 am 11:53 Sunny 57 13.9 26 -3.3 30 30 Calm 30.44 1031 10 16.0934 0 0
12:53 pm 12:53 Sunny 60 15.6 24 -4.4 25 25 VRB 3 6 30.41 1030 10 16.0934 0 0
1:53 pm 13:53 Sunny 64 17.8 20 -6.7 18 18 SSE 8 13 30.38 1029 10 16.0934 0 0
2:53 pm 14:53 Sunny 66 18.9 18 -7.8 16 16 SW 8 13 30.35 1028 10 16.0934 0 0
3:53 pm 15:53 Sunny 67 19.4 17 -8.3 15 15 WNW 5 7 30.32 1027 10 16.0934 0 0
4:53 pm 16:53 Sunny 67 19.4 20 -6.7 17 17 E 3 6 30.29 1026 10 16.0934 0 0
5:53 pm 17:53 Sunny 66 18.9 26 -3.3 22 22 SSE 8 13 30.28 1025 10 16.0934 0 0
6:53 pm 18:53 Sunny 64 17.8 29 -1.7 27 27 S 9 15 30.27 1025 10 16.0934 0 0
7:53 pm 19:53 Clear 62 16.7 29 -1.7 29 29 SE 3 6 30.28 1025 10 16.0934 0 0
8:53 pm 20:53 Clear 52 11.1 34 1.1 50 50 Calm 30.28 1025 10 16.0934 0 0
9:53 pm 21:53 Clear 48 8.9 37 2.8 66 66 Calm 30.27 1025 10 16.0934 0 0
10:53 pm 22:53 Clear 44 6.7 37 2.8 76 76 Calm 30.26 1025 10 16.0934 0 0
11:53 pm 23:53 Clear 43 6.1 35 1.7 74 74 Calm 30.25 1024 10 16.0934 0 0

Powered by AerisWeather